EW7038 Weather Reports


time (UTC)temp
C
wind
direction
speed
KPH
gust
KPH
rain 1hr
cm
rain 24hr
cm
rain mn
cm
humidity
%
barometer
mb
20260508115306 13 283 4.8 12.9 0.00 0.00 0.00 48 1015.5
20260508114304 13 258 4.8 12.9 0.00 0.00 0.00 47 1015.6
20260508113805 13 268 8.0 19.3 0.00 0.00 0.00 47 1015.5
20260508113305 13 237 4.8 14.5 0.00 0.00 0.00 47 1015.5
20260508112805 13 220 4.8 19.3 0.00 0.00 0.00 47 1015.5
20260508112307 13 302 3.2 12.9 0.00 0.00 0.00 47 1015.4
20260508111805 13 304 6.4 12.9 0.00 0.00 0.00 47 1015.4
20260508110805 12 195 3.2 8.0 0.00 0.00 0.00 52 1015.4
20260508105804 12 338 4.8 11.3 0.00 0.00 0.00 53 1015.4
20260508105306 12 64 3.2 4.8 0.00 0.00 0.00 53 1015.3
20260508104805 12 46 3.2 8.0 0.00 0.00 0.00 52 1015.4
20260508104305 12 137 3.2 4.8 0.00 0.00 0.00 52 1015.4
20260508103806 12 56 1.6 8.0 0.00 0.00 0.00 51 1015.4
20260508103305 12 243 4.8 9.7 0.00 0.00 0.00 51 1015.5
20260508102805 12 225 6.4 12.9 0.00 0.00 0.00 50 1015.4
20260508102306 12 267 8.0 16.1 0.00 0.00 0.00 50 1015.4
20260508101804 12 257 9.7 12.9 0.00 0.00 0.00 51 1015.4
20260508101304 12 279 8.0 14.5 0.00 0.00 0.00 50 1015.4
20260508100804 12 286 8.0 14.5 0.00 0.00 0.00 50 1015.4
20260508100304 12 283 9.7 16.1 0.00 0.00 0.00 49 1015.4
20260508095805 12 281 8.0 14.5 0.00 0.00 0.00 49 1015.4
20260508095306 12 259 8.0 14.5 0.00 0.00 0.00 48 1015.4
20260508094805 12 302 8.0 16.1 0.00 0.00 0.00 47 1015.3
20260508094305 12 275 9.7 19.3 0.00 0.00 0.00 46 1015.3
20260508093804 12 288 8.0 16.1 0.00 0.00 0.00 46 1015.3
20260508093305 12 275 8.0 12.9 0.00 0.00 0.00 48 1015.3
20260508092804 12 282 9.7 16.1 0.00 0.00 0.00 48 1015.2
20260508092312 12 253 9.7 14.5 0.00 0.00 0.00 47 1015.3
20260508091805 12 260 8.0 12.9 0.00 0.00 0.00 47 1015.3
20260508091304 12 271 6.4 12.9 0.00 0.00 0.00 47 1015.3
20260508090805 12 256 4.8 12.9 0.00 0.00 0.00 47 1015.2
20260508090305 12 254 9.7 12.9 0.00 0.00 0.00 46 1015.2
20260508085804 12 272 11.3 14.5 0.00 0.00 0.00 46 1015.2
20260508085307 12 253 9.7 16.1 0.00 0.00 0.00 46 1015.2
20260508084805 12 269 9.7 16.1 0.00 0.00 0.00 46 1015.2
20260508084305 12 258 11.3 16.1 0.00 0.00 0.00 46 1015.2
20260508083806 12 265 11.3 19.3 0.00 0.00 0.00 45 1015.2
20260508082804 12 292 9.7 19.3 0.00 0.00 0.00 45 1015.2
20260508082306 13 291 9.7 16.1 0.00 0.00 0.00 44 1015.2
20260508081805 13 286 8.0 16.1 0.00 0.00 0.00 43 1015.1
20260508081304 13 299 8.0 19.3 0.00 0.00 0.00 42 1015.1
20260508080805 13 276 9.7 16.1 0.00 0.00 0.00 42 1015.1
20260508080305 13 297 8.0 16.1 0.00 0.00 0.00 42 1015.1
20260508075805 13 292 6.4 12.9 0.00 0.00 0.00 41 1015.1
20260508075308 13 284 6.4 12.9 0.00 0.00 0.00 42 1015.1
20260508074805 13 292 4.8 12.9 0.00 0.00 0.00 40 1015.1
20260508074304 14 288 4.8 11.3 0.00 0.00 0.00 39 1015.1
20260508073804 14 266 6.4 12.9 0.00 0.00 0.00 38 1015.0
20260508073305 14 267 8.0 12.9 0.00 0.00 0.00 37 1015.1
20260508072804 15 283 6.4 12.9 0.00 0.00 0.00 36 1015.0
20260508072307 15 186 3.2 4.8 0.00 0.00 0.00 33 1015.0
20260508071304 15 234 3.2 8.0 0.00 0.00 0.00 32 1014.9
20260508070304 15 222 3.2 8.0 0.00 0.00 0.00 32 1014.9
20260508065805 15 236 3.2 11.3 0.00 0.00 0.00 33 1015.0
20260508065307 15 207 4.8 11.3 0.00 0.00 0.00 34 1015.0
20260508064804 15 210 3.2 8.0 0.00 0.00 0.00 34 1015.0
20260508064304 15 203 3.2 9.7 0.00 0.00 0.00 32 1015.0
20260508063804 15 208 4.8 11.3 0.00 0.00 0.00 33 1014.9
20260508063305 15 264 3.2 14.5 0.00 0.00 0.00 34 1015.0
20260508062804 15 228 6.4 11.3 0.00 0.00 0.00 32 1015.1
20260508062306 15 217 3.2 8.0 0.00 0.00 0.00 34 1015.0
20260508061805 15 237 1.6 4.8 0.00 0.00 0.00 34 1015.0
20260508061304 16 163 4.8 8.0 0.00 0.00 0.00 34 1014.9
20260508060805 16 207 3.2 4.8 0.00 0.00 0.00 33 1015.0
20260508060305 16 235 3.2 9.7 0.00 0.00 0.00 33 1015.0
20260508055306 16 217 4.8 9.7 0.00 0.00 0.00 32 1015.0
20260508054805 16 215 4.8 12.9 0.00 0.00 0.00 32 1015.0
20260508054305 16 228 4.8 11.3 0.00 0.00 0.00 33 1014.9
20260508053805 16 167 4.8 8.0 0.00 0.00 0.00 33 1014.9
20260508053305 16 202 4.8 12.9 0.00 0.00 0.00 34 1015.0
20260508052805 16 173 3.2 11.3 0.00 0.00 0.00 33 1015.1
20260508052307 16 202 3.2 9.7 0.00 0.00 0.00 33 1015.1
20260508051804 16 200 3.2 4.8 0.00 0.00 0.00 33 1014.9
20260508051304 16 183 4.8 12.9 0.00 0.00 0.00 32 1015.1
20260508050805 16 213 4.8 11.3 0.00 0.00 0.00 34 1015.0
20260508050305 16 159 3.2 11.3 0.00 0.00 0.00 33 1015.0
20260508045804 16 208 4.8 11.3 0.00 0.00 0.00 34 1015.0
20260508045307 16 222 3.2 11.3 0.00 0.00 0.00 34 1015.0
20260508044304 16 209 4.8 14.5 0.00 0.00 0.00 33 1014.9
20260508043805 17 204 6.4 9.7 0.00 0.00 0.00 32 1014.8
20260508042805 17 176 4.8 8.0 0.00 0.00 0.00 33 1014.8
20260508042307 17 223 4.8 12.9 0.00 0.00 0.00 32 1014.8
20260508041805 17 177 4.8 9.7 0.00 0.00 0.00 32 1014.8
20260508041305 17 192 4.8 9.7 0.00 0.00 0.00 32 1014.8
20260508040804 17 213 4.8 8.0 0.00 0.00 0.00 33 1014.7
20260508035804 17 168 3.2 9.7 0.00 0.00 0.00 34 1014.6
20260508035306 17 161 3.2 8.0 0.00 0.00 0.00 32 1014.5
20260508034806 17 168 3.2 11.3 0.00 0.00 0.00 32 1014.5
20260508034305 17 240 8.0 16.1 0.00 0.00 0.00 32 1014.6
20260508033804 17 237 3.2 16.1 0.00 0.00 0.00 31 1014.5
20260508033304 17 242 8.0 19.3 0.00 0.00 0.00 31 1014.5
20260508032804 16 203 3.2 8.0 0.00 0.00 0.00 31 1014.4
20260508031805 17 215 3.2 8.0 0.00 0.00 0.00 29 1014.3
20260508031304 17 236 4.8 14.5 0.00 0.00 0.00 29 1014.2
20260508030804 17 175 4.8 9.7 0.00 0.00 0.00 28 1014.3
20260508025804 18 275 6.4 11.3 0.00 0.00 0.00 26 1014.1
20260508024805 18 2 4.8 9.7 0.00 0.00 0.00 25 1014.3
20260508023804 19 151 9.7 14.5 0.00 0.00 0.00 23 1014.2
20260508023305 19 170 6.4 12.9 0.00 0.00 0.00 23 1014.2
20260508022804 19 156 3.2 8.0 0.00 0.00 0.00 22 1014.1
20260508022307 20 311 3.2 8.0 0.00 0.00 0.00 22 1014.1
20260508021804 20 269 9.7 19.3 0.00 0.00 0.00 22 1014.1
20260508021304 20 251 11.3 20.9 0.00 0.00 0.00 22 1014.1
20260508020804 20 267 6.4 19.3 0.00 0.00 0.00 21 1014.1
20260508015805 20 326 8.0 19.3 0.00 0.00 0.00 20 1014.1
20260508015306 20 292 6.4 11.3 0.00 0.00 0.00 21 1014.1
20260508014304 20 241 4.8 14.5 0.00 0.00 0.00 20 1014.1
20260508013805 20 333 6.4 16.1 0.00 0.00 0.00 20 1014.2
20260508013305 20 200 11.3 22.5 0.00 0.00 0.00 19 1014.1
20260508012804 21 293 6.4 20.9 0.00 0.00 0.00 20 1014.1
20260508012307 21 217 9.7 24.1 0.00 0.00 0.00 21 1014.1
20260508011804 21 320 6.4 19.3 0.00 0.00 0.00 20 1014.2
20260508011304 21 290 9.7 20.9 0.00 0.00 0.00 20 1014.2
20260508005805 21 311 9.7 25.7 0.00 0.00 0.00 20 1014.2
20260508005306 21 308 9.7 24.1 0.00 0.00 0.00 20 1014.2
20260508004804 20 310 8.0 22.5 0.00 0.00 0.00 20 1014.2
20260508004305 20 274 9.7 25.7 0.00 0.00 0.00 20 1014.2
20260508002805 20 278 11.3 27.4 0.00 0.00 0.00 21 1014.1
20260508002306 20 264 12.9 24.1 0.00 0.00 0.00 20 1014.0
20260508000804 20 268 14.5 29.0 0.00 0.00 0.00 21 1013.9
20260508000305 21 271 17.7 33.8 0.00 0.00 0.00 22 1014.0
20260507235805 21 249 14.5 25.7 0.00 0.00 0.00 21 1014.0
20260507235306 21 285 14.5 32.2 0.00 0.00 0.00 22 1013.9
20260507234805 21 259 12.9 32.2 0.00 0.00 0.00 24 1013.9
20260507233805 21 290 9.7 27.4 0.00 0.00 0.00 20 1014.0
20260507233305 21 285 16.1 29.0 0.00 0.00 0.00 23 1013.9
20260507232306 21 270 16.1 35.4 0.00 0.00 0.00 22 1014.0
20260507231805 21 257 19.3 29.0 0.00 0.00 0.00 25 1014.0
20260507231305 21 267 14.5 32.2 0.00 0.00 0.00 19 1014.0
20260507230804 21 260 11.3 33.8 0.00 0.00 0.00 21 1014.2
20260507230304 21 258 16.1 37.0 0.00 0.00 0.00 24 1014.3
20260507225804 21 277 16.1 29.0 0.00 0.00 0.00 24 1014.2
20260507224805 21 264 19.3 33.8 0.00 0.00 0.00 25 1014.2
20260507223804 21 263 14.5 25.7 0.00 0.03 0.00 22 1014.3
20260507223305 21 253 12.9 33.8 0.00 0.03 0.00 23 1014.4
20260507222306 21 315 9.7 27.4 0.00 0.03 0.00 22 1014.5
20260507221804 21 282 11.3 27.4 0.00 0.03 0.00 26 1014.5
20260507221304 20 289 12.9 27.4 0.00 0.03 0.00 28 1014.5
20260507220305 20 283 9.7 33.8 0.00 0.03 0.00 27 1014.7
20260507215804 20 254 17.7 32.2 0.00 0.03 0.00 30 1014.7
20260507214805 20 267 14.5 35.4 0.00 0.03 0.00 28 1014.8
20260507214304 20 284 14.5 33.8 0.00 0.03 0.00 27 1014.8
20260507213804 20 274 20.9 40.2 0.00 0.03 0.00 34 1014.8
20260507213304 20 276 20.9 37.0 0.00 0.03 0.00 30 1014.9
20260507212805 20 271 19.3 45.1 0.00 0.03 0.00 31 1015.0
20260507212307 20 267 20.9 37.0 0.00 0.03 0.00 31 1015.0
20260507211805 20 263 16.1 33.8 0.00 0.03 0.00 30 1015.0
20260507211304 20 312 14.5 33.8 0.00 0.03 0.00 30 1015.1
20260507210804 19 281 17.7 32.2 0.00 0.03 0.00 30 1015.2
20260507210305 19 257 16.1 33.8 0.00 0.03 0.00 32 1015.2
20260507205804 19 256 20.9 33.8 0.00 0.03 0.00 32 1015.3
20260507205306 19 287 8.0 33.8 0.00 0.03 0.00 32 1015.4
20260507204804 19 284 17.7 37.0 0.00 0.03 0.00 33 1015.5
20260507204305 19 288 19.3 32.2 0.00 0.03 0.00 34 1015.5
20260507203804 19 261 14.5 29.0 0.00 0.03 0.00 34 1015.6
20260507203304 18 280 14.5 35.4 0.00 0.03 0.00 32 1015.7
20260507202805 18 288 17.7 32.2 0.00 0.03 0.00 36 1015.7
20260507202307 18 289 16.1 32.2 0.00 0.03 0.00 34 1015.9
20260507201804 18 278 14.5 33.8 0.00 0.03 0.00 34 1015.9
20260507201304 18 329 6.4 29.0 0.00 0.03 0.00 32 1016.0
20260507200805 18 254 11.3 32.2 0.00 0.03 0.00 34 1016.1
20260507200305 18 283 8.0 37.0 0.00 0.03 0.00 35 1016.2
20260507195805 18 280 8.0 20.9 0.00 0.03 0.00 36 1016.1
20260507195305 17 234 19.3 33.8 0.00 0.05 0.00 37 1016.2
20260507194804 17 294 20.9 40.2 0.00 0.05 0.00 38 1016.1
20260507193805 17 258 20.9 37.0 0.00 0.05 0.00 38 1016.3
20260507193304 17 263 17.7 40.2 0.00 0.05 0.00 39 1016.4
20260507191804 17 267 11.3 27.4 0.00 0.05 0.00 38 1016.5
20260507191304 16 294 19.3 37.0 0.00 0.05 0.00 41 1016.5
20260507190805 16 278 20.9 38.6 0.00 0.05 0.00 42 1016.4
20260507190304 16 263 19.3 40.2 0.00 0.05 0.00 41 1016.5
20260507185804 16 257 19.3 40.2 0.00 0.05 0.00 45 1016.5
20260507185306 16 277 16.1 38.6 0.00 0.05 0.00 43 1016.6
20260507184804 16 279 24.1 51.5 0.00 0.05 0.00 46 1016.5
20260507184304 15 262 20.9 45.1 0.00 0.05 0.00 47 1016.8
20260507183804 15 280 22.5 48.3 0.00 0.05 0.00 45 1016.7
20260507182805 15 276 24.1 49.9 0.00 0.05 0.00 48 1016.5
20260507182306 15 272 25.7 53.1 0.00 0.05 0.00 46 1016.7
20260507181804 15 283 22.5 46.7 0.00 0.05 0.00 47 1016.7
20260507180804 15 268 24.1 56.3 0.00 0.05 0.00 49 1016.6
20260507175306 14 267 25.7 46.7 0.00 0.05 0.00 50 1016.6
20260507174804 14 266 29.0 51.5 0.00 0.05 0.00 51 1016.7
20260507174304 14 265 29.0 49.9 0.00 0.05 0.00 51 1017.0
20260507173804 14 270 27.4 41.8 0.00 0.05 0.00 51 1017.1
20260507173305 14 274 22.5 49.9 0.00 0.05 0.00 50 1017.2
20260507172804 14 274 22.5 41.8 0.00 0.05 0.00 51 1017.1
20260507171804 13 282 17.7 51.5 0.00 0.05 0.00 51 1017.4
20260507171304 13 279 14.5 45.1 0.00 0.05 0.00 51 1017.6
20260507170804 13 286 20.9 35.4 0.00 0.05 0.00 52 1017.4
20260507170304 13 268 20.9 38.6 0.00 0.05 0.00 53 1017.6
20260507165804 13 295 19.3 38.6 0.00 0.05 0.00 52 1017.4
20260507165306 13 254 17.7 48.3 0.00 0.05 0.00 52 1017.5
20260507163803 13 260 20.9 38.6 0.00 0.05 0.00 54 1017.7
20260507162804 13 283 19.3 35.4 0.00 0.05 0.00 54 1017.6
20260507162307 13 290 19.3 38.6 0.00 0.05 0.00 54 1017.8
20260507161804 13 276 19.3 40.2 0.00 0.05 0.00 55 1017.9
20260507160805 12 269 16.1 35.4 0.00 0.05 0.00 55 1017.9
20260507155804 12 281 19.3 37.0 0.00 0.05 0.00 57 1017.9
20260507155306 12 271 8.0 29.0 0.00 0.05 0.00 57 1018.0
20260507154804 12 254 14.5 27.4 0.00 0.05 0.00 58 1018.2
20260507154304 12 252 9.7 25.7 0.00 0.05 0.00 57 1018.3
20260507153804 12 235 11.3 25.7 0.00 0.05 0.00 59 1018.3
20260507153305 12 267 9.7 33.8 0.00 0.05 0.00 60 1018.1
20260507152804 12 245 12.9 25.7 0.00 0.05 0.00 60 1018.2
20260507152306 12 253 14.5 29.0 0.00 0.05 0.00 60 1018.3
20260507151804 12 253 12.9 32.2 0.00 0.05 0.00 60 1018.2
20260507151305 12 293 8.0 19.3 0.00 0.05 0.00 61 1018.2
20260507150804 11 248 11.3 35.4 0.00 0.05 0.00 61 1017.9
20260507150305 11 238 12.9 38.6 0.00 0.05 0.00 62 1018.3
20260507145804 11 227 9.7 35.4 0.00 0.05 0.00 62 1018.4
20260507145307 11 281 14.5 33.8 0.00 0.05 0.00 62 1018.4
20260507144804 11 201 9.7 27.4 0.00 0.05 0.00 64 1018.4
20260507143805 11 279 9.7 27.4 0.00 0.05 0.00 64 1018.4
20260507143304 11 253 8.0 19.3 0.00 0.05 0.00 64 1018.2
20260507142804 11 268 8.0 22.5 0.00 0.05 0.00 64 1018.2
20260507142306 11 266 9.7 22.5 0.00 0.05 0.00 64 1018.0
20260507140804 11 235 9.7 27.4 0.00 0.05 0.00 65 1018.2
20260507140304 11 216 16.1 32.2 0.00 0.05 0.00 64 1017.9
20260507135805 11 263 19.3 38.6 0.00 0.05 0.00 64 1017.8
20260507135306 11 252 19.3 37.0 0.00 0.05 0.00 63 1017.8
20260507134804 11 262 19.3 40.2 0.00 0.05 0.00 64 1017.7
20260507134304 11 284 19.3 35.4 0.00 0.05 0.00 63 1017.7
20260507133304 11 262 17.7 35.4 0.00 0.05 0.00 64 1017.7
20260507132804 11 245 11.3 32.2 0.00 0.05 0.00 65 1017.8
20260507132307 11 271 11.3 29.0 0.00 0.05 0.00 64 1017.8
20260507131805 11 282 9.7 27.4 0.00 0.05 0.00 65 1017.7
20260507131303 11 267 14.5 29.0 0.00 0.05 0.00 65 1017.9
20260507130805 11 278 14.5 33.8 0.00 0.05 0.00 64 1017.7
20260507130304 11 249 11.3 32.2 0.00 0.05 0.00 64 1017.9
20260507125804 11 270 14.5 37.0 0.00 0.05 0.00 64 1017.7
20260507125306 11 269 12.9 24.1 0.00 0.05 0.00 64 1017.7
20260507124804 11 252 16.1 32.2 0.00 0.05 0.00 63 1017.6
20260507124305 12 272 14.5 32.2 0.00 0.05 0.00 64 1017.7
20260507123804 12 286 14.5 33.8 0.00 0.05 0.00 64 1017.6
20260507123304 12 263 11.3 32.2 0.00 0.05 0.00 64 1017.6
20260507122805 12 268 9.7 19.3 0.00 0.05 0.00 64 1017.6
20260507122307 12 273 11.3 25.7 0.00 0.05 0.00 64 1017.6
20260507121804 12 263 8.0 33.8 0.00 0.05 0.00 64 1017.7
20260507120804 12 264 9.7 27.4 0.00 0.05 0.00 64 1017.6
20260507120304 12 273 11.3 27.4 0.00 0.05 0.00 64 1017.5
20260507115803 12 296 11.3 29.0 0.00 0.05 0.00 64 1017.5